Location: Fours
(44.3167°N, 6.7000°E)
Time: 10:27:13
(UTC+00:00)

Cosmos 2297 Rocket - Pass Details

Date: 16 October 2021
Orbit: 839 x 844 km, 71.0° (Epoch: 07 December)

Event Time Altitude Azimuth Distance (km) Brightness Sun altitude
Rises 17:15:21 0° 332° (NNW) 3,404 5.6 -5.8°
Reaches altitude 10° 17:17:49 10° 329° (NNW) 2,466 5.0 -6.2°
Maximum altitude 17:23:25 66° 249° (WSW) 919 2.7 -7.2°
Drops below altitude 10° 17:28:59 10° 168° (SSE) 2,453 4.6 -8.2°
Sets 17:31:26 0° 166° (SSE) 3,385 5.2 -8.7°
